AMOS-4

Last updated on Sun Apr 12 2026 00:02:53 GMT+0000 (Coordinated Universal Time)

1 39237U 13045A 26101.46226840 .00000009 00000+0 00000+0 0 9996 2 39237 0.0447 102.4115 0003164 269.6519 59.0150 1.00271787 46280
UTC large
Height (km)
Speed (km/s)
/
Latitude / Longitude
Inclination (degrees)
Orbital Period (minutes)
Azimuth
Elevation
Range (km)
Doppler Factor

Next 0 passes for location: London (51.5072 / 0.1276)

Sorry there are no passes over London.
AMOS-4